owner,sensor,date,latitude,longitude,air_temperature,qcFlag 
TCOON,ioos:station:TCOON:524:1,2016-07-01T00:12:00Z,29.8672,-93.9310,30.2,1111122 
TCOON,ioos:station:TCOON:524:1,2016-07-01T01:12:00Z,29.8672,-93.9310,29.0,1111122 
TCOON,ioos:station:TCOON:524:1,2016-07-01T02:12:00Z,29.8672,-93.9310,28.8,1111122 
TCOON,ioos:station:TCOON:524:1,2016-07-01T03:12:00Z,29.8672,-93.9310,28.3,1111122 
TCOON,ioos:station:TCOON:524:1,2016-07-01T04:12:00Z,29.8672,-93.9310,28.6,1111122 
TCOON,ioos:station:TCOON:524:1,2016-07-01T05:12:00Z,29.8672,-93.9310,28.0,1111122 
TCOON,ioos:station:TCOON:524:1,2016-07-01T06:12:00Z,29.8672,-93.9310,27.8,1111122 
TCOON,ioos:station:TCOON:524:1,2016-07-01T07:12:00Z,29.8672,-93.9310,27.6,1111122 
TCOON,ioos:station:TCOON:524:1,2016-07-01T08:12:00Z,29.8672,-93.9310,27.4,1111122 
TCOON,ioos:station:TCOON:524:1,2016-07-01T09:12:00Z,29.8672,-93.9310,27.5,1111122 
TCOON,ioos:station:TCOON:524:1,2016-07-01T10:12:00Z,29.8672,-93.9310,27.2,1111122 
TCOON,ioos:station:TCOON:524:1,2016-07-01T11:12:00Z,29.8672,-93.9310,27.1,1111122 
TCOON,ioos:station:TCOON:524:1,2016-07-01T12:12:00Z,29.8672,-93.9310,27.0,1111122 
TCOON,ioos:station:TCOON:524:1,2016-07-01T13:12:00Z,29.8672,-93.9310,28.3,1111122 
TCOON,ioos:station:TCOON:524:1,2016-07-01T14:12:00Z,29.8672,-93.9310,30.0,1111122 
TCOON,ioos:station:TCOON:524:1,2016-07-01T15:12:00Z,29.8672,-93.9310,29.8,1111122 
TCOON,ioos:station:TCOON:524:1,2016-07-01T16:12:00Z,29.8672,-93.9310,30.4,1111122 
TCOON,ioos:station:TCOON:524:1,2016-07-01T17:12:00Z,29.8672,-93.9310,30.7,1111122 
TCOON,ioos:station:TCOON:524:1,2016-07-01T18:12:00Z,29.8672,-93.9310,31.2,1111122 
TCOON,ioos:station:TCOON:524:1,2016-07-01T19:12:00Z,29.8672,-93.9310,31.4,1111122 
TCOON,ioos:station:TCOON:524:1,2016-07-01T20:12:00Z,29.8672,-93.9310,31.7,1111122 
TCOON,ioos:station:TCOON:524:1,2016-07-01T21:12:00Z,29.8672,-93.9310,31.7,1111122 
TCOON,ioos:station:TCOON:524:1,2016-07-01T22:12:00Z,29.8672,-93.9310,31.4,1111122 
TCOON,ioos:station:TCOON:524:1,2016-07-01T23:12:00Z,29.8672,-93.9310,31.1,1111122 
TCOON,ioos:station:TCOON:524:1,2016-07-02T00:12:00Z,29.8672,-93.9310,30.8,1111122 
TCOON,ioos:station:TCOON:524:1,2016-07-02T01:12:00Z,29.8672,-93.9310,29.8,1111122 
TCOON,ioos:station:TCOON:524:1,2016-07-02T02:12:00Z,29.8672,-93.9310,29.2,1111122 
TCOON,ioos:station:TCOON:524:1,2016-07-02T03:12:00Z,29.8672,-93.9310,28.7,1111122 
TCOON,ioos:station:TCOON:524:1,2016-07-02T04:12:00Z,29.8672,-93.9310,28.4,1111122 
TCOON,ioos:station:TCOON:524:1,2016-07-02T05:12:00Z,29.8672,-93.9310,28.1,1111122 
TCOON,ioos:station:TCOON:524:1,2016-07-02T06:18:00Z,29.8672,-93.9310,27.9,1111122 
TCOON,ioos:station:TCOON:524:1,2016-07-02T07:12:00Z,29.8672,-93.9310,27.8,1111122 
TCOON,ioos:station:TCOON:524:1,2016-07-02T08:12:00Z,29.8672,-93.9310,27.7,1111122 
TCOON,ioos:station:TCOON:524:1,2016-07-02T09:12:00Z,29.8672,-93.9310,27.7,1111122 
TCOON,ioos:station:TCOON:524:1,2016-07-02T10:12:00Z,29.8672,-93.9310,27.5,1111122 
TCOON,ioos:station:TCOON:524:1,2016-07-02T11:12:00Z,29.8672,-93.9310,27.5,1111122 
TCOON,ioos:station:TCOON:524:1,2016-07-02T12:12:00Z,29.8672,-93.9310,28.4,1111122 
TCOON,ioos:station:TCOON:524:1,2016-07-02T13:12:00Z,29.8672,-93.9310,29.6,1111122 
TCOON,ioos:station:TCOON:524:1,2016-07-02T14:12:00Z,29.8672,-93.9310,29.6,1111122 
TCOON,ioos:station:TCOON:524:1,2016-07-02T15:12:00Z,29.8672,-93.9310,28.7,1111122 
TCOON,ioos:station:TCOON:524:1,2016-07-02T16:12:00Z,29.8672,-93.9310,29.4,1111122 
TCOON,ioos:station:TCOON:524:1,2016-07-02T17:12:00Z,29.8672,-93.9310,29.9,1111122 
TCOON,ioos:station:TCOON:524:1,2016-07-02T18:12:00Z,29.8672,-93.9310,30.6,1111122 
TCOON,ioos:station:TCOON:524:1,2016-07-02T19:12:00Z,29.8672,-93.9310,30.0,1111122 
TCOON,ioos:station:TCOON:524:1,2016-07-02T20:12:00Z,29.8672,-93.9310,31.0,1111122 
TCOON,ioos:station:TCOON:524:1,2016-07-02T21:12:00Z,29.8672,-93.9310,31.4,1111122 
TCOON,ioos:station:TCOON:524:1,2016-07-02T22:12:00Z,29.8672,-93.9310,31.0,1111122 
TCOON,ioos:station:TCOON:524:1,2016-07-02T23:12:00Z,29.8672,-93.9310,31.0,1111122 
TCOON,ioos:station:TCOON:524:1,2016-07-03T00:12:00Z,29.8672,-93.9310,30.1,1111122 
TCOON,ioos:station:TCOON:524:1,2016-07-03T01:12:00Z,29.8672,-93.9310,29.3,1111122 
TCOON,ioos:station:TCOON:524:1,2016-07-03T02:12:00Z,29.8672,-93.9310,29.1,1111122 
TCOON,ioos:station:TCOON:524:1,2016-07-03T03:12:00Z,29.8672,-93.9310,28.5,1111122 
TCOON,ioos:station:TCOON:524:1,2016-07-03T04:12:00Z,29.8672,-93.9310,28.1,1111122 
TCOON,ioos:station:TCOON:524:1,2016-07-03T05:12:00Z,29.8672,-93.9310,28.0,1111122 
TCOON,ioos:station:TCOON:524:1,2016-07-03T06:12:00Z,29.8672,-93.9310,27.9,1111122 
TCOON,ioos:station:TCOON:524:1,2016-07-03T07:12:00Z,29.8672,-93.9310,27.9,1111122 
TCOON,ioos:station:TCOON:524:1,2016-07-03T08:12:00Z,29.8672,-93.9310,27.3,1111122 
TCOON,ioos:station:TCOON:524:1,2016-07-03T09:12:00Z,29.8672,-93.9310,27.5,1111122 
TCOON,ioos:station:TCOON:524:1,2016-07-03T10:12:00Z,29.8672,-93.9310,27.6,1111122 
TCOON,ioos:station:TCOON:524:1,2016-07-03T11:12:00Z,29.8672,-93.9310,27.4,1111122 
TCOON,ioos:station:TCOON:524:1,2016-07-03T12:12:00Z,29.8672,-93.9310,28.0,1111122 
TCOON,ioos:station:TCOON:524:1,2016-07-03T13:12:00Z,29.8672,-93.9310,29.2,1111122 
TCOON,ioos:station:TCOON:524:1,2016-07-03T14:12:00Z,29.8672,-93.9310,29.7,1111122 
TCOON,ioos:station:TCOON:524:1,2016-07-03T15:12:00Z,29.8672,-93.9310,30.7,1111122 
TCOON,ioos:station:TCOON:524:1,2016-07-03T16:12:00Z,29.8672,-93.9310,31.1,1111122 
TCOON,ioos:station:TCOON:524:1,2016-07-03T17:12:00Z,29.8672,-93.9310,31.1,1111122 
TCOON,ioos:station:TCOON:524:1,2016-07-03T18:12:00Z,29.8672,-93.9310,31.4,1111122 
TCOON,ioos:station:TCOON:524:1,2016-07-03T19:12:00Z,29.8672,-93.9310,31.5,1111122 
TCOON,ioos:station:TCOON:524:1,2016-07-03T20:12:00Z,29.8672,-93.9310,31.5,1111122 
TCOON,ioos:station:TCOON:524:1,2016-07-03T21:12:00Z,29.8672,-93.9310,31.3,1111122 
TCOON,ioos:station:TCOON:524:1,2016-07-03T22:12:00Z,29.8672,-93.9310,31.4,1111122 
TCOON,ioos:station:TCOON:524:1,2016-07-03T23:12:00Z,29.8672,-93.9310,31.1,1111122 
TCOON,ioos:station:TCOON:524:1,2016-07-04T00:12:00Z,29.8672,-93.9310,30.3,1111122 
TCOON,ioos:station:TCOON:524:1,2016-07-04T01:12:00Z,29.8672,-93.9310,29.8,1111122 
TCOON,ioos:station:TCOON:524:1,2016-07-04T02:12:00Z,29.8672,-93.9310,29.4,1111122 
TCOON,ioos:station:TCOON:524:1,2016-07-04T03:12:00Z,29.8672,-93.9310,29.3,1111122 
TCOON,ioos:station:TCOON:524:1,2016-07-04T04:12:00Z,29.8672,-93.9310,29.2,1111122 
TCOON,ioos:station:TCOON:524:1,2016-07-04T05:12:00Z,29.8672,-93.9310,29.1,1111122 
TCOON,ioos:station:TCOON:524:1,2016-07-04T06:12:00Z,29.8672,-93.9310,28.8,1111122 
TCOON,ioos:station:TCOON:524:1,2016-07-04T07:12:00Z,29.8672,-93.9310,28.8,1111122 
TCOON,ioos:station:TCOON:524:1,2016-07-04T08:12:00Z,29.8672,-93.9310,29.0,1111122 
TCOON,ioos:station:TCOON:524:1,2016-07-04T09:12:00Z,29.8672,-93.9310,28.8,1111122 
TCOON,ioos:station:TCOON:524:1,2016-07-04T10:12:00Z,29.8672,-93.9310,29.0,1111122 
TCOON,ioos:station:TCOON:524:1,2016-07-04T11:12:00Z,29.8672,-93.9310,29.0,1111122 
TCOON,ioos:station:TCOON:524:1,2016-07-04T12:12:00Z,29.8672,-93.9310,29.1,1111122 
TCOON,ioos:station:TCOON:524:1,2016-07-04T13:12:00Z,29.8672,-93.9310,30.0,1111122 
TCOON,ioos:station:TCOON:524:1,2016-07-04T14:18:00Z,29.8672,-93.9310,30.5,1111122 
TCOON,ioos:station:TCOON:524:1,2016-07-04T15:12:00Z,29.8672,-93.9310,30.9,1111122 
TCOON,ioos:station:TCOON:524:1,2016-07-04T16:12:00Z,29.8672,-93.9310,31.3,1111122 
TCOON,ioos:station:TCOON:524:1,2016-07-04T17:12:00Z,29.8672,-93.9310,31.3,1111122 
TCOON,ioos:station:TCOON:524:1,2016-07-04T18:12:00Z,29.8672,-93.9310,31.6,1111122 
TCOON,ioos:station:TCOON:524:1,2016-07-04T19:12:00Z,29.8672,-93.9310,31.7,1111122 
TCOON,ioos:station:TCOON:524:1,2016-07-04T20:18:00Z,29.8672,-93.9310,31.0,1111122 
TCOON,ioos:station:TCOON:524:1,2016-07-04T21:18:00Z,29.8672,-93.9310,31.1,1111122 
TCOON,ioos:station:TCOON:524:1,2016-07-04T22:12:00Z,29.8672,-93.9310,31.1,1111122 
TCOON,ioos:station:TCOON:524:1,2016-07-04T23:12:00Z,29.8672,-93.9310,31.0,1111122 
TCOON,ioos:station:TCOON:524:1,2016-07-05T00:12:00Z,29.8672,-93.9310,30.3,1111122 
TCOON,ioos:station:TCOON:524:1,2016-07-05T01:12:00Z,29.8672,-93.9310,29.6,1111122 
TCOON,ioos:station:TCOON:524:1,2016-07-05T02:12:00Z,29.8672,-93.9310,29.0,1111122 
TCOON,ioos:station:TCOON:524:1,2016-07-05T03:12:00Z,29.8672,-93.9310,28.5,1111122 
TCOON,ioos:station:TCOON:524:1,2016-07-05T04:18:00Z,29.8672,-93.9310,28.5,1111122 
TCOON,ioos:station:TCOON:524:1,2016-07-05T05:12:00Z,29.8672,-93.9310,28.8,1111122 
TCOON,ioos:station:TCOON:524:1,2016-07-05T06:12:00Z,29.8672,-93.9310,28.7,1111122 
TCOON,ioos:station:TCOON:524:1,2016-07-05T07:12:00Z,29.8672,-93.9310,28.7,1111122 
TCOON,ioos:station:TCOON:524:1,2016-07-05T08:12:00Z,29.8672,-93.9310,28.8,1111122 
TCOON,ioos:station:TCOON:524:1,2016-07-05T09:12:00Z,29.8672,-93.9310,28.8,1111122 
TCOON,ioos:station:TCOON:524:1,2016-07-05T10:12:00Z,29.8672,-93.9310,28.8,1111122 
TCOON,ioos:station:TCOON:524:1,2016-07-05T11:12:00Z,29.8672,-93.9310,28.8,1111122 
TCOON,ioos:station:TCOON:524:1,2016-07-05T12:12:00Z,29.8672,-93.9310,28.9,1111122 
TCOON,ioos:station:TCOON:524:1,2016-07-05T13:12:00Z,29.8672,-93.9310,29.5,1111122 
TCOON,ioos:station:TCOON:524:1,2016-07-05T14:12:00Z,29.8672,-93.9310,30.2,1111122 
TCOON,ioos:station:TCOON:524:1,2016-07-05T15:12:00Z,29.8672,-93.9310,30.2,1111122 
TCOON,ioos:station:TCOON:524:1,2016-07-05T16:12:00Z,29.8672,-93.9310,30.7,1111122 
TCOON,ioos:station:TCOON:524:1,2016-07-05T17:12:00Z,29.8672,-93.9310,30.9,1111122 
TCOON,ioos:station:TCOON:524:1,2016-07-05T18:12:00Z,29.8672,-93.9310,31.3,1111122 
TCOON,ioos:station:TCOON:524:1,2016-07-05T21:12:00Z,29.8672,-93.9310,31.4,1111122 
TCOON,ioos:station:TCOON:524:1,2016-07-05T22:12:00Z,29.8672,-93.9310,30.7,1111122 
TCOON,ioos:station:TCOON:524:1,2016-07-05T23:12:00Z,29.8672,-93.9310,30.6,1111122 
TCOON,ioos:station:TCOON:524:1,2016-07-06T00:12:00Z,29.8672,-93.9310,30.0,1111122 
TCOON,ioos:station:TCOON:524:1,2016-07-06T01:12:00Z,29.8672,-93.9310,29.4,1111122 
TCOON,ioos:station:TCOON:524:1,2016-07-06T02:12:00Z,29.8672,-93.9310,29.1,1111122 
TCOON,ioos:station:TCOON:524:1,2016-07-06T03:12:00Z,29.8672,-93.9310,29.1,1111122 
TCOON,ioos:station:TCOON:524:1,2016-07-06T04:18:00Z,29.8672,-93.9310,28.7,1111122 
TCOON,ioos:station:TCOON:524:1,2016-07-06T05:12:00Z,29.8672,-93.9310,28.7,1111122 
TCOON,ioos:station:TCOON:524:1,2016-07-06T06:12:00Z,29.8672,-93.9310,28.6,1111122 
TCOON,ioos:station:TCOON:524:1,2016-07-06T07:12:00Z,29.8672,-93.9310,28.4,1111122 
TCOON,ioos:station:TCOON:524:1,2016-07-06T08:12:00Z,29.8672,-93.9310,28.5,1111122 
TCOON,ioos:station:TCOON:524:1,2016-07-06T09:12:00Z,29.8672,-93.9310,28.4,1111122 
TCOON,ioos:station:TCOON:524:1,2016-07-06T10:12:00Z,29.8672,-93.9310,28.5,1111122 
TCOON,ioos:station:TCOON:524:1,2016-07-06T11:12:00Z,29.8672,-93.9310,28.2,1111122 
TCOON,ioos:station:TCOON:524:1,2016-07-06T12:12:00Z,29.8672,-93.9310,28.4,1111122 
TCOON,ioos:station:TCOON:524:1,2016-07-06T13:12:00Z,29.8672,-93.9310,29.4,1111122 
TCOON,ioos:station:TCOON:524:1,2016-07-06T14:12:00Z,29.8672,-93.9310,29.9,1111122 
TCOON,ioos:station:TCOON:524:1,2016-07-06T15:12:00Z,29.8672,-93.9310,30.4,1111122 
TCOON,ioos:station:TCOON:524:1,2016-07-06T16:12:00Z,29.8672,-93.9310,30.6,1111122 
TCOON,ioos:station:TCOON:524:1,2016-07-06T17:12:00Z,29.8672,-93.9310,30.6,1111122 
TCOON,ioos:station:TCOON:524:1,2016-07-06T18:12:00Z,29.8672,-93.9310,31.2,1111122 
TCOON,ioos:station:TCOON:524:1,2016-07-06T19:12:00Z,29.8672,-93.9310,31.4,1111122 
TCOON,ioos:station:TCOON:524:1,2016-07-06T20:12:00Z,29.8672,-93.9310,31.4,1111122 
TCOON,ioos:station:TCOON:524:1,2016-07-06T21:12:00Z,29.8672,-93.9310,31.0,1111122 
TCOON,ioos:station:TCOON:524:1,2016-07-06T22:12:00Z,29.8672,-93.9310,30.9,1111122 
TCOON,ioos:station:TCOON:524:1,2016-07-06T23:12:00Z,29.8672,-93.9310,30.5,1111122 
TCOON,ioos:station:TCOON:524:1,2016-07-07T00:12:00Z,29.8672,-93.9310,30.1,1111122 
TCOON,ioos:station:TCOON:524:1,2016-07-07T01:12:00Z,29.8672,-93.9310,29.4,1111122 
TCOON,ioos:station:TCOON:524:1,2016-07-07T02:12:00Z,29.8672,-93.9310,28.9,1111122 
TCOON,ioos:station:TCOON:524:1,2016-07-07T03:12:00Z,29.8672,-93.9310,28.9,1111122 
TCOON,ioos:station:TCOON:524:1,2016-07-07T04:12:00Z,29.8672,-93.9310,29.0,1111122 
TCOON,ioos:station:TCOON:524:1,2016-07-07T05:12:00Z,29.8672,-93.9310,28.8,1111122 
TCOON,ioos:station:TCOON:524:1,2016-07-07T06:12:00Z,29.8672,-93.9310,28.4,1111122 
TCOON,ioos:station:TCOON:524:1,2016-07-07T07:12:00Z,29.8672,-93.9310,27.7,1111122 
TCOON,ioos:station:TCOON:524:1,2016-07-07T08:12:00Z,29.8672,-93.9310,27.8,1111122 
TCOON,ioos:station:TCOON:524:1,2016-07-07T09:12:00Z,29.8672,-93.9310,27.7,1111122 
TCOON,ioos:station:TCOON:524:1,2016-07-07T10:12:00Z,29.8672,-93.9310,27.6,1111122 
TCOON,ioos:station:TCOON:524:1,2016-07-07T11:12:00Z,29.8672,-93.9310,27.7,1111122 
TCOON,ioos:station:TCOON:524:1,2016-07-07T12:12:00Z,29.8672,-93.9310,28.0,1111122 
TCOON,ioos:station:TCOON:524:1,2016-07-07T13:12:00Z,29.8672,-93.9310,29.3,1111122 
TCOON,ioos:station:TCOON:524:1,2016-07-07T14:12:00Z,29.8672,-93.9310,29.9,1111122 
TCOON,ioos:station:TCOON:524:1,2016-07-07T15:12:00Z,29.8672,-93.9310,30.3,1111122 
TCOON,ioos:station:TCOON:524:1,2016-07-07T16:12:00Z,29.8672,-93.9310,30.7,1111122 
TCOON,ioos:station:TCOON:524:1,2016-07-07T17:12:00Z,29.8672,-93.9310,31.2,1111122 
TCOON,ioos:station:TCOON:524:1,2016-07-07T18:12:00Z,29.8672,-93.9310,31.1,1111122 
TCOON,ioos:station:TCOON:524:1,2016-07-07T19:12:00Z,29.8672,-93.9310,31.4,1111122 
TCOON,ioos:station:TCOON:524:1,2016-07-07T20:12:00Z,29.8672,-93.9310,31.5,1111122 
TCOON,ioos:station:TCOON:524:1,2016-07-07T21:18:00Z,29.8672,-93.9310,31.3,1111122 
TCOON,ioos:station:TCOON:524:1,2016-07-07T22:12:00Z,29.8672,-93.9310,31.2,1111122 
TCOON,ioos:station:TCOON:524:1,2016-07-07T23:12:00Z,29.8672,-93.9310,30.8,1111122 
TCOON,ioos:station:TCOON:524:1,2016-07-08T00:12:00Z,29.8672,-93.9310,30.7,1111122 
TCOON,ioos:station:TCOON:524:1,2016-07-08T01:12:00Z,29.8672,-93.9310,29.5,1111122 
TCOON,ioos:station:TCOON:524:1,2016-07-08T02:12:00Z,29.8672,-93.9310,28.9,1111122 
TCOON,ioos:station:TCOON:524:1,2016-07-08T03:12:00Z,29.8672,-93.9310,28.7,1111122 
TCOON,ioos:station:TCOON:524:1,2016-07-08T04:18:00Z,29.8672,-93.9310,28.7,1111122 
TCOON,ioos:station:TCOON:524:1,2016-07-08T05:12:00Z,29.8672,-93.9310,28.2,1111122 
TCOON,ioos:station:TCOON:524:1,2016-07-08T06:12:00Z,29.8672,-93.9310,27.8,1111122 
TCOON,ioos:station:TCOON:524:1,2016-07-08T07:12:00Z,29.8672,-93.9310,27.8,1111122 
TCOON,ioos:station:TCOON:524:1,2016-07-08T08:12:00Z,29.8672,-93.9310,27.7,1111122 
TCOON,ioos:station:TCOON:524:1,2016-07-08T09:12:00Z,29.8672,-93.9310,27.4,1111122 
TCOON,ioos:station:TCOON:524:1,2016-07-08T10:12:00Z,29.8672,-93.9310,27.8,1111122 
TCOON,ioos:station:TCOON:524:1,2016-07-08T11:12:00Z,29.8672,-93.9310,27.3,1111122 
TCOON,ioos:station:TCOON:524:1,2016-07-08T12:12:00Z,29.8672,-93.9310,27.3,1111122 
TCOON,ioos:station:TCOON:524:1,2016-07-08T13:18:00Z,29.8672,-93.9310,29.3,1111122 
TCOON,ioos:station:TCOON:524:1,2016-07-08T14:12:00Z,29.8672,-93.9310,30.1,1111122 
TCOON,ioos:station:TCOON:524:1,2016-07-08T15:12:00Z,29.8672,-93.9310,30.4,1111122 
TCOON,ioos:station:TCOON:524:1,2016-07-08T16:12:00Z,29.8672,-93.9310,31.2,1111122 
TCOON,ioos:station:TCOON:524:1,2016-07-08T17:12:00Z,29.8672,-93.9310,31.2,1111122 
TCOON,ioos:station:TCOON:524:1,2016-07-08T18:12:00Z,29.8672,-93.9310,31.5,1111122 
TCOON,ioos:station:TCOON:524:1,2016-07-08T19:12:00Z,29.8672,-93.9310,31.0,1111122 
TCOON,ioos:station:TCOON:524:1,2016-07-08T20:12:00Z,29.8672,-93.9310,31.2,1111122 
TCOON,ioos:station:TCOON:524:1,2016-07-08T21:12:00Z,29.8672,-93.9310,31.1,1111122 
TCOON,ioos:station:TCOON:524:1,2016-07-08T22:12:00Z,29.8672,-93.9310,31.0,1111122 
TCOON,ioos:station:TCOON:524:1,2016-07-09T00:12:00Z,29.8672,-93.9310,30.3,1111122 
TCOON,ioos:station:TCOON:524:1,2016-07-09T01:12:00Z,29.8672,-93.9310,29.4,1111122 
TCOON,ioos:station:TCOON:524:1,2016-07-09T02:12:00Z,29.8672,-93.9310,28.7,1111122 
TCOON,ioos:station:TCOON:524:1,2016-07-09T03:12:00Z,29.8672,-93.9310,28.6,1111122 
TCOON,ioos:station:TCOON:524:1,2016-07-09T04:12:00Z,29.8672,-93.9310,28.2,1111122 
TCOON,ioos:station:TCOON:524:1,2016-07-09T05:12:00Z,29.8672,-93.9310,28.2,1111122 
TCOON,ioos:station:TCOON:524:1,2016-07-09T06:18:00Z,29.8672,-93.9310,28.2,1111122 
TCOON,ioos:station:TCOON:524:1,2016-07-09T07:12:00Z,29.8672,-93.9310,27.2,1111122 
TCOON,ioos:station:TCOON:524:1,2016-07-09T08:12:00Z,29.8672,-93.9310,27.7,1111122 
TCOON,ioos:station:TCOON:524:1,2016-07-09T09:12:00Z,29.8672,-93.9310,27.2,1111122 
TCOON,ioos:station:TCOON:524:1,2016-07-09T10:12:00Z,29.8672,-93.9310,26.8,1111122 
TCOON,ioos:station:TCOON:524:1,2016-07-09T11:12:00Z,29.8672,-93.9310,27.3,1111122 
TCOON,ioos:station:TCOON:524:1,2016-07-09T12:12:00Z,29.8672,-93.9310,27.3,1111122 
TCOON,ioos:station:TCOON:524:1,2016-07-09T13:12:00Z,29.8672,-93.9310,28.8,1111122 
TCOON,ioos:station:TCOON:524:1,2016-07-09T14:12:00Z,29.8672,-93.9310,29.5,1111122 
TCOON,ioos:station:TCOON:524:1,2016-07-09T15:12:00Z,29.8672,-93.9310,30.5,1111122 
TCOON,ioos:station:TCOON:524:1,2016-07-09T16:12:00Z,29.8672,-93.9310,31.1,1111122 
TCOON,ioos:station:TCOON:524:1,2016-07-09T17:12:00Z,29.8672,-93.9310,30.6,1111122 
TCOON,ioos:station:TCOON:524:1,2016-07-09T18:12:00Z,29.8672,-93.9310,31.6,1111122 
TCOON,ioos:station:TCOON:524:1,2016-07-09T19:12:00Z,29.8672,-93.9310,31.6,1111122 
TCOON,ioos:station:TCOON:524:1,2016-07-09T20:12:00Z,29.8672,-93.9310,31.6,1111122 
TCOON,ioos:station:TCOON:524:1,2016-07-09T21:12:00Z,29.8672,-93.9310,30.9,1111122 
TCOON,ioos:station:TCOON:524:1,2016-07-09T22:12:00Z,29.8672,-93.9310,30.1,1111122 
TCOON,ioos:station:TCOON:524:1,2016-07-09T23:12:00Z,29.8672,-93.9310,30.7,1111122 
TCOON,ioos:station:TCOON:524:1,2016-07-10T00:12:00Z,29.8672,-93.9310,30.5,1111122 
TCOON,ioos:station:TCOON:524:1,2016-07-10T01:12:00Z,29.8672,-93.9310,29.3,1111122 
TCOON,ioos:station:TCOON:524:1,2016-07-10T02:12:00Z,29.8672,-93.9310,28.6,1111122 
TCOON,ioos:station:TCOON:524:1,2016-07-10T03:18:00Z,29.8672,-93.9310,28.2,1111122 
TCOON,ioos:station:TCOON:524:1,2016-07-10T04:18:00Z,29.8672,-93.9310,28.0,1111122 
TCOON,ioos:station:TCOON:524:1,2016-07-10T05:12:00Z,29.8672,-93.9310,28.3,1111122 
TCOON,ioos:station:TCOON:524:1,2016-07-10T06:12:00Z,29.8672,-93.9310,28.0,1111122 
TCOON,ioos:station:TCOON:524:1,2016-07-10T07:12:00Z,29.8672,-93.9310,28.4,1111122 
TCOON,ioos:station:TCOON:524:1,2016-07-10T08:12:00Z,29.8672,-93.9310,27.9,1111122 
TCOON,ioos:station:TCOON:524:1,2016-07-10T09:12:00Z,29.8672,-93.9310,27.4,1111122 
TCOON,ioos:station:TCOON:524:1,2016-07-10T10:12:00Z,29.8672,-93.9310,27.2,1111122 
TCOON,ioos:station:TCOON:524:1,2016-07-10T11:12:00Z,29.8672,-93.9310,27.1,1111122 
TCOON,ioos:station:TCOON:524:1,2016-07-10T12:18:00Z,29.8672,-93.9310,27.7,1111122 
TCOON,ioos:station:TCOON:524:1,2016-07-10T13:12:00Z,29.8672,-93.9310,28.9,1111122 
TCOON,ioos:station:TCOON:524:1,2016-07-10T14:12:00Z,29.8672,-93.9310,30.0,1111122 
TCOON,ioos:station:TCOON:524:1,2016-07-10T15:12:00Z,29.8672,-93.9310,30.2,1111122 
TCOON,ioos:station:TCOON:524:1,2016-07-10T16:12:00Z,29.8672,-93.9310,30.2,1111122 
TCOON,ioos:station:TCOON:524:1,2016-07-10T17:12:00Z,29.8672,-93.9310,31.0,1111122 
TCOON,ioos:station:TCOON:524:1,2016-07-10T18:12:00Z,29.8672,-93.9310,31.9,1111122 
TCOON,ioos:station:TCOON:524:1,2016-07-10T19:12:00Z,29.8672,-93.9310,31.7,1111122 
TCOON,ioos:station:TCOON:524:1,2016-07-10T20:12:00Z,29.8672,-93.9310,31.0,1111122 
TCOON,ioos:station:TCOON:524:1,2016-07-10T21:12:00Z,29.8672,-93.9310,30.9,1111122 
TCOON,ioos:station:TCOON:524:1,2016-07-10T22:12:00Z,29.8672,-93.9310,30.8,1111122 
TCOON,ioos:station:TCOON:524:1,2016-07-10T23:12:00Z,29.8672,-93.9310,30.2,1111122 
TCOON,ioos:station:TCOON:524:1,2016-07-11T00:12:00Z,29.8672,-93.9310,30.2,1111122 
TCOON,ioos:station:TCOON:524:1,2016-07-11T01:12:00Z,29.8672,-93.9310,29.1,1111122 
TCOON,ioos:station:TCOON:524:1,2016-07-11T02:12:00Z,29.8672,-93.9310,28.6,1111122 
TCOON,ioos:station:TCOON:524:1,2016-07-11T03:12:00Z,29.8672,-93.9310,28.4,1111122 
TCOON,ioos:station:TCOON:524:1,2016-07-11T04:12:00Z,29.8672,-93.9310,29.0,1111122 
TCOON,ioos:station:TCOON:524:1,2016-07-11T05:12:00Z,29.8672,-93.9310,28.8,1111122 
TCOON,ioos:station:TCOON:524:1,2016-07-11T06:12:00Z,29.8672,-93.9310,28.7,1111122 
TCOON,ioos:station:TCOON:524:1,2016-07-11T07:12:00Z,29.8672,-93.9310,28.8,1111122 
TCOON,ioos:station:TCOON:524:1,2016-07-11T08:12:00Z,29.8672,-93.9310,28.6,1111122 
TCOON,ioos:station:TCOON:524:1,2016-07-11T09:12:00Z,29.8672,-93.9310,28.4,1111122 
TCOON,ioos:station:TCOON:524:1,2016-07-11T10:12:00Z,29.8672,-93.9310,28.4,1111122 
TCOON,ioos:station:TCOON:524:1,2016-07-11T11:12:00Z,29.8672,-93.9310,28.2,1111122 
TCOON,ioos:station:TCOON:524:1,2016-07-11T12:12:00Z,29.8672,-93.9310,28.2,1111122 
TCOON,ioos:station:TCOON:524:1,2016-07-11T13:12:00Z,29.8672,-93.9310,29.3,1111122 
TCOON,ioos:station:TCOON:524:1,2016-07-11T14:12:00Z,29.8672,-93.9310,29.7,1111122 
TCOON,ioos:station:TCOON:524:1,2016-07-11T15:12:00Z,29.8672,-93.9310,30.3,1111122 
TCOON,ioos:station:TCOON:524:1,2016-07-11T16:12:00Z,29.8672,-93.9310,30.6,1111122 
TCOON,ioos:station:TCOON:524:1,2016-07-11T17:12:00Z,29.8672,-93.9310,30.6,1111122 
TCOON,ioos:station:TCOON:524:1,2016-07-11T18:12:00Z,29.8672,-93.9310,31.1,1111122 
TCOON,ioos:station:TCOON:524:1,2016-07-11T19:12:00Z,29.8672,-93.9310,31.0,1111122 
TCOON,ioos:station:TCOON:524:1,2016-07-11T20:12:00Z,29.8672,-93.9310,31.2,1111122 
TCOON,ioos:station:TCOON:524:1,2016-07-11T21:12:00Z,29.8672,-93.9310,31.1,1111122 
TCOON,ioos:station:TCOON:524:1,2016-07-11T22:12:00Z,29.8672,-93.9310,31.1,1111122 
TCOON,ioos:station:TCOON:524:1,2016-07-11T23:12:00Z,29.8672,-93.9310,30.8,1111122 
TCOON,ioos:station:TCOON:524:1,2016-07-12T00:12:00Z,29.8672,-93.9310,30.2,1111122 
TCOON,ioos:station:TCOON:524:1,2016-07-12T01:12:00Z,29.8672,-93.9310,29.4,1111122 
TCOON,ioos:station:TCOON:524:1,2016-07-12T02:18:00Z,29.8672,-93.9310,29.1,1111122 
TCOON,ioos:station:TCOON:524:1,2016-07-12T03:12:00Z,29.8672,-93.9310,29.0,1111122 
TCOON,ioos:station:TCOON:524:1,2016-07-12T04:12:00Z,29.8672,-93.9310,28.9,1111122 
TCOON,ioos:station:TCOON:524:1,2016-07-12T05:12:00Z,29.8672,-93.9310,29.0,1111122 
TCOON,ioos:station:TCOON:524:1,2016-07-12T06:12:00Z,29.8672,-93.9310,28.6,1111122 
TCOON,ioos:station:TCOON:524:1,2016-07-12T07:12:00Z,29.8672,-93.9310,28.1,1111122 
TCOON,ioos:station:TCOON:524:1,2016-07-12T08:12:00Z,29.8672,-93.9310,27.5,1111122 
TCOON,ioos:station:TCOON:524:1,2016-07-12T09:12:00Z,29.8672,-93.9310,27.2,1111122 
TCOON,ioos:station:TCOON:524:1,2016-07-12T10:12:00Z,29.8672,-93.9310,27.1,1111122 
TCOON,ioos:station:TCOON:524:1,2016-07-12T11:12:00Z,29.8672,-93.9310,27.5,1111122 
TCOON,ioos:station:TCOON:524:1,2016-07-12T12:12:00Z,29.8672,-93.9310,27.7,1111122 
TCOON,ioos:station:TCOON:524:1,2016-07-12T13:12:00Z,29.8672,-93.9310,29.2,1111122 
TCOON,ioos:station:TCOON:524:1,2016-07-12T14:12:00Z,29.8672,-93.9310,29.9,1111122 
TCOON,ioos:station:TCOON:524:1,2016-07-12T15:12:00Z,29.8672,-93.9310,30.3,1111122 
TCOON,ioos:station:TCOON:524:1,2016-07-12T16:12:00Z,29.8672,-93.9310,30.8,1111122 
TCOON,ioos:station:TCOON:524:1,2016-07-12T17:12:00Z,29.8672,-93.9310,30.9,1111122 
TCOON,ioos:station:TCOON:524:1,2016-07-12T18:12:00Z,29.8672,-93.9310,31.8,1111122 
TCOON,ioos:station:TCOON:524:1,2016-07-12T19:12:00Z,29.8672,-93.9310,31.0,1111122 
TCOON,ioos:station:TCOON:524:1,2016-07-12T20:12:00Z,29.8672,-93.9310,31.4,1111122 
TCOON,ioos:station:TCOON:524:1,2016-07-12T21:12:00Z,29.8672,-93.9310,31.1,1111122 
TCOON,ioos:station:TCOON:524:1,2016-07-12T22:12:00Z,29.8672,-93.9310,31.4,1111122 
TCOON,ioos:station:TCOON:524:1,2016-07-12T23:12:00Z,29.8672,-93.9310,31.1,1111122 
TCOON,ioos:station:TCOON:524:1,2016-07-13T00:12:00Z,29.8672,-93.9310,30.2,1111122 
TCOON,ioos:station:TCOON:524:1,2016-07-13T01:12:00Z,29.8672,-93.9310,29.6,1111122 
TCOON,ioos:station:TCOON:524:1,2016-07-13T02:12:00Z,29.8672,-93.9310,29.5,1111122 